Location: Unspecified
(38.9917°N, 0.0000°E)
Time: 05:17:33
(UTC+00:00)

Hubble Space Telescope - Visible Passes

Search period start: 19 June 2019 00:00
Search period end: 29 June 2019 00:00
Orbit: 536 x 540 km, 28.5° (Epoch: 18 June)

Date Brightness Start Highest point End Pass type
(mag) Time Alt. Az. Time Alt. Az. Time Alt. Az.
19 Jun 2.6 03:36:23 13° SW 03:37:47 15° SSW 03:40:10 10° SSE visible
20 Jun 2.6 03:26:51 13° SSW 03:27:09 13° SSW 03:29:10 10° SSE visible
21 Jun 2.9 03:17:33 11° S 03:17:33 11° S 03:17:57 10° S visible
25 Jun 3.1 21:19:13 10° SSW 21:19:24 11° SSW 21:19:24 11° SSW visible
26 Jun 2.6 21:08:23 10° SSW 21:09:58 15° SSW 21:09:58 15° SSW visible
27 Jun 2.4 20:57:38 10° SW 21:00:21 18° S 21:00:21 18° S visible
28 Jun 2.3 20:46:55 10° SW 20:49:51 19° S 20:50:33 18° SSE visible
